QPF
0.02 0.02 0.02 0.03 0.03 0.02 0.02 0.03 0.04 0.04 0.05 0.06 0.07 0.07 0.07 0.06 0.04 0.02 0.02 0.02 0.01 0.01 0.01 0.02 0.02 0.02 0.02 0.01 0.01 0.02 0.03 0.03 0.03 0.03 0.03 0.03 0.04 0.05 0.05 0.04 0.03 0.02 0.03
0.01 0.02 0.03 0.04 0.04 0.03 0.03 0.03 0.04 0.04 0.05 0.07 0.08 0.09 0.09 0.08 0.07 0.06 0.03 0.02 0.02 0.01 0.01 0.01 0.01 0.01 0.01 0.01 0.01 0.01 0.01 0.02 0.03 0.03 0.03 0.03 0.03 0.04 0.06 0.05 0.04 0.03 0.03
0.01 0.02 0.03 0.03 0.03 0.03 0.03 0.04 0.05 0.05 0.06 0.07 0.07 0.08 0.09 0.08 0.07 0.05 0.04 0.03 0.02 0.01 0.01 0.01 0.01 0.01 0.01 0.01 0.01 0.01 0.01 0.01 0.01 0.02 0.03 0.03 0.02 0.03 0.05 0.06 0.05 0.04 0.03
0.02 0.02 0.03 0.03 0.03 0.03 0.04 0.03 0.04 0.03 0.05 0.06 0.07 0.06 0.07 0.06 0.05 0.04 0.04 0.03 0.02 0.01 0.01 0.01 0.00 0.00 0.01 0.01 0.01 0.01 0.01 0.01 0.01 0.01 0.01 0.02 0.02 0.03 0.04 0.06 0.05 0.03 0.03
0.01 0.01 0.02 0.03 0.03 0.03 0.04 0.03 0.02 0.02 0.03 0.04 0.05 0.05 0.05 0.05 0.05 0.04 0.03 0.03 0.02 0.01 0.01 0.01 0.01 0.01 0.01 0.02 0.02 0.01 0.01 0.01 0.01 0.01 0.01 0.01 0.02 0.03 0.04 0.05 0.03 0.03 0.03
0.02 0.02 0.03 0.04 0.04 0.04 0.04 0.03 0.03 0.04 0.05 0.05 0.05 0.06 0.05 0.04 0.05 0.04 0.03 0.02 0.02 0.02 0.02 0.01 0.01 0.01 0.01 0.01 0.01 0.02 0.02 0.01 0.01 0.01 0.01 0.02 0.02 0.03 0.03 0.03 0.03 0.03 0.03
0.02 0.02 0.04 0.05 0.04 0.04 0.05 0.04 0.05 0.05 0.03 0.04 0.04 0.05 0.07 0.05 0.04 0.02 0.02 0.02 0.02 0.02 0.01 0.01 0.01 0.01 0.01 0.01 0.01 0.02 0.02 0.01 0.01 0.01 0.02 0.03 0.02 0.02 0.03 0.03 0.02 0.02 0.02
0.03 0.02 0.04 0.04 0.03 0.02 0.02 0.02 0.03 0.04 0.03 0.02 0.03 0.04 0.04 0.05 0.03 0.02 0.01 0.01 0.01 0.01 0.01 0.00 0.00 0.01 0.01 0.01 0.01 0.01 0.01 0.01 0.01 0.02 0.03 0.03 0.02 0.02 0.02 0.04 0.05 0.04 0.03
0.03 0.02 0.02 0.03 0.03 0.02 0.02 0.02 0.02 0.02 0.02 0.03 0.04 0.04 0.05 0.04 0.02 0.01 0.01 0.01 0.01 0.01 0.01 0.01 0.01 0.01 0.01 0.01 0.00 0.00 0.00 0.01 0.02 0.02 0.02 0.02 0.02 0.02 0.02 0.02 0.03 0.04 0.04
0.02 0.02 0.01 0.02 0.02 0.03 0.02 0.02 0.02 0.01 0.01 0.02 0.03 0.03 0.03 0.03 0.03 0.02 0.01 0.01 0.01 0.01 0.01 0.01 0.01 0.02 0.01 0.01 0.01 0.00 0.01 0.01 0.01 0.01 0.02 0.03 0.03 0.03 0.03 0.02 0.02 0.02 0.03
0.02 0.01 0.01 0.02 0.01 0.02 0.02 0.01 0.01 0.01 0.01 0.02 0.03 0.03 0.03 0.03 0.03 0.02 0.01 0.00 0.00 0.01 0.01 0.01 0.01 0.01 0.01 0.01 0.01 0.01 0.01 0.01 0.01 0.01 0.01 0.01 0.02 0.02 0.02 0.02 0.02 0.03 0.04
0.01 0.01 0.02 0.02 0.01 0.01 0.02 0.02 0.01 0.01 0.02 0.02 0.02 0.02 0.01 0.01 0.01 0.01 0.00 0.00 0.00 0.00 0.01 0.01 0.01 0.01 0.01 0.01 0.01 0.01 0.01 0.01 0.01 0.01 0.01 0.01 0.01 0.01 0.03 0.02 0.03 0.03 0.02
0.01 0.01 0.01 0.01 0.02 0.02 0.02 0.03 0.01 0.01 0.01 0.01 0.01 0.01 0.01 0.01 0.01 0.00 0.00 0.00 0.01 0.01 0.01 0.01 0.01 0.01 0.01 0.01 0.02 0.02 0.01 0.01 0.02 0.02 0.01 0.01 0.01 0.02 0.02 0.01 0.02 0.02 0.02
0.02 0.03 0.03 0.02 0.02 0.03 0.03 0.02 0.01 0.01 0.00 0.01 0.01 0.01 0.01 0.00 0.01 0.00 0.00 0.01 0.01 0.01 0.01 0.01 0.01 0.01 0.01 0.01 0.01 0.01 0.01 0.01 0.01 0.01 0.01 0.01 0.01 0.01 0.02 0.02 0.03 0.03 0.03
0.04 0.04 0.04 0.04 0.03 0.02 0.02 0.01 0.01 0.01 0.01 0.01 0.01 0.01 0.01 0.01 0.01 0.01 0.00 0.00 0.00 0.00 0.00 0.00 0.01 0.01 0.01 0.02 0.02 0.02 0.02 0.01 0.01 0.01 0.01 0.01 0.01 0.02 0.02 0.03 0.04 0.04 0.04
0.03 0.02 0.02 0.03 0.03 0.02 0.01 0.01 0.01 0.01 0.01 0.01 0.01 0.01 0.01 0.01 0.01 0.00 0.01 0.01 0.00 0.00 0.00 0.00 0.01 0.01 0.01 0.02 0.02 0.02 0.02 0.02 0.02 0.01 0.01 0.01 0.02 0.02 0.03 0.03 0.04 0.04 0.04
0.01 0.01 0.01 0.02 0.02 0.02 0.01 0.01 0.01 0.01 0.01 0.02 0.02 0.02 0.01 0.01 0.00 0.00 0.00 0.00 0.00 0.00 0.00 0.01 0.01 0.01 0.01 0.01 0.01 0.01 0.01 0.02 0.02 0.02 0.01 0.02 0.02 0.02 0.04 0.04 0.03 0.02 0.03
0.01 0.01 0.01 0.01 0.02 0.01 0.01 0.01 0.01 0.01 0.02 0.03 0.03 0.02 0.01 0.01 0.01 0.00 0.00 0.00 0.00 0.00 0.00 0.01 0.01 0.02 0.02 0.01 0.01 0.01 0.01 0.01 0.02 0.02 0.02 0.03 0.03 0.03 0.04 0.04 0.02 0.02 0.03
0.01 0.01 0.01 0.01 0.01 0.01 0.01 0.01 0.02 0.03 0.04 0.03 0.02 0.01 0.01 0.02 0.01 0.01 0.00 0.00 0.00 0.01 0.01 0.01 0.01 0.01 0.01 0.01 0.01 0.01 0.01 0.02 0.02 0.02 0.02 0.02 0.03 0.03 0.03 0.04 0.02 0.02 0.02
0.01 0.01 0.01 0.01 0.01 0.01 0.01 0.02 0.03 0.03 0.03 0.02 0.01 0.01 0.01 0.01 0.01 0.01 0.01 0.01 0.01 0.01 0.01 0.01 0.01 0.01 0.01 0.01 0.01 0.02 0.02 0.02 0.02 0.02 0.02 0.02 0.02 0.03 0.04 0.04 0.03 0.02 0.02
0.00 0.00 0.01 0.01 0.01 0.01 0.02 0.02 0.02 0.02 0.02 0.01 0.01 0.01 0.01 0.01 0.02 0.02 0.02 0.02 0.02 0.02 0.02 0.01 0.01 0.01 0.01 0.02 0.02 0.02 0.02 0.02 0.02 0.02 0.02 0.02 0.02 0.03 0.04 0.04 0.03 0.02 0.01
0.00 0.00 0.00 0.01 0.01 0.01 0.01 0.01 0.02 0.02 0.01 0.01 0.01 0.01 0.02 0.03 0.03 0.04 0.03 0.03 0.03 0.02 0.02 0.01 0.01 0.02 0.02 0.02 0.02 0.01 0.01 0.01 0.02 0.02 0.02 0.03 0.03 0.03 0.03 0.03 0.03 0.03 0.02
0.00 0.00 0.01 0.01 0.00 0.01 0.01 0.01 0.01 0.01 0.01 0.00 0.01 0.01 0.02 0.02 0.02 0.02 0.02 0.01 0.01 0.01 0.01 0.01 0.01 0.01 0.01 0.01 0.01 0.02 0.02 0.01 0.02 0.02 0.02 0.03 0.03 0.03 0.03 0.03 0.03 0.03 0.03
0.00 0.00 0.00 0.00 0.00 0.00 0.00 0.01 0.01 0.01 0.01 0.01 0.01 0.01 0.01 0.01 0.01 0.01 0.01 0.00 0.00 0.00 0.00 0.01 0.01 0.01 0.01 0.01 0.01 0.01 0.01 0.02 0.02 0.01 0.02 0.03 0.04 0.04 0.03 0.02 0.02 0.03 0.03
0.00 0.00 0.00 0.00 0.00 0.00 0.00 0.00 0.00 0.00 0.01 0.01 0.01 0.01 0.01 0.01 0.01 0.01 0.01 0.00 0.00 0.00 0.01 0.01 0.01 0.01 0.01 0.01 0.00 0.00 0.01 0.01 0.01 0.01 0.01 0.02 0.04 0.03 0.02 0.02 0.02 0.03 0.03
0.00 0.00 0.00 0.00 0.00 0.00 0.00 0.00 0.00 0.01 0.01 0.01 0.01 0.00 0.00 0.00 0.01 0.01 0.01 0.00 0.00 0.01 0.01 0.01 0.01 0.01 0.01 0.01 0.01 0.00 0.00 0.00 0.00 0.00 0.00 0.01 0.03 0.03 0.02 0.03 0.03 0.03 0.04
MSLP
1015.98 1015.87 1015.80 1015.74 1015.63 1015.46 1015.21 1014.87 1014.46 1014.00 1013.51 1013.00 1012.49 1011.98 1011.49 1011.02 1010.59 1010.21 1009.89 1009.64 1009.45 1009.33 1009.25 1009.19 1009.14 1009.06 1008.95 1008.81 1008.67 1008.54 1008.45 1008.43 1008.51 1008.70 1008.98 1009.34 1009.75 1010.19 1010.62 1011.03 1011.40 1011.74 1012.06
1016.00 1015.86 1015.76 1015.66 1015.54 1015.37 1015.15 1014.86 1014.52 1014.14 1013.73 1013.31 1012.88 1012.44 1012.00 1011.57 1011.17 1010.79 1010.46 1010.19 1009.97 1009.81 1009.68 1009.58 1009.47 1009.36 1009.23 1009.08 1008.92 1008.78 1008.69 1008.67 1008.73 1008.89 1009.12 1009.43 1009.79 1010.16 1010.54 1010.90 1011.23 1011.54 1011.83
1016.01 1015.84 1015.71 1015.58 1015.43 1015.25 1015.04 1014.79 1014.51 1014.21 1013.89 1013.55 1013.21 1012.85 1012.48 1012.11 1011.74 1011.39 1011.07 1010.79 1010.55 1010.36 1010.21 1010.07 1009.95 1009.82 1009.67 1009.51 1009.36 1009.22 1009.12 1009.07 1009.10 1009.20 1009.37 1009.61 1009.88 1010.18 1010.48 1010.78 1011.06 1011.33 1011.59
1016.02 1015.84 1015.68 1015.52 1015.34 1015.15 1014.93 1014.70 1014.47 1014.23 1013.98 1013.73 1013.47 1013.19 1012.89 1012.58 1012.25 1011.93 1011.62 1011.35 1011.11 1010.90 1010.74 1010.59 1010.46 1010.32 1010.18 1010.02 1009.87 1009.72 1009.60 1009.53 1009.51 1009.55 1009.64 1009.79 1009.98 1010.19 1010.42 1010.64 1010.87 1011.10 1011.32
1016.04 1015.87 1015.69 1015.50 1015.30 1015.08 1014.86 1014.64 1014.43 1014.24 1014.05 1013.86 1013.67 1013.45 1013.21 1012.94 1012.65 1012.35 1012.06 1011.79 1011.55 1011.35 1011.18 1011.03 1010.90 1010.77 1010.64 1010.49 1010.34 1010.19 1010.05 1009.94 1009.87 1009.84 1009.86 1009.92 1010.02 1010.15 1010.31 1010.47 1010.64 1010.83 1011.01
1016.06 1015.90 1015.72 1015.52 1015.30 1015.06 1014.83 1014.62 1014.43 1014.26 1014.11 1013.96 1013.81 1013.64 1013.43 1013.19 1012.93 1012.65 1012.37 1012.10 1011.86 1011.66 1011.49 1011.35 1011.22 1011.10 1010.98 1010.84 1010.69 1010.53 1010.37 1010.23 1010.11 1010.02 1009.97 1009.96 1009.99 1010.05 1010.13 1010.24 1010.37 1010.51 1010.65
1016.07 1015.94 1015.77 1015.57 1015.33 1015.09 1014.86 1014.65 1014.47 1014.31 1014.18 1014.06 1013.93 1013.77 1013.58 1013.36 1013.10 1012.83 1012.55 1012.29 1012.05 1011.85 1011.68 1011.54 1011.42 1011.30 1011.18 1011.04 1010.89 1010.72 1010.54 1010.36 1010.20 1010.07 1009.96 1009.89 1009.86 1009.86 1009.90 1009.96 1010.05 1010.14 1010.25
1016.06 1015.96 1015.81 1015.61 1015.39 1015.16 1014.93 1014.73 1014.55 1014.41 1014.29 1014.17 1014.05 1013.89 1013.71 1013.48 1013.22 1012.95 1012.67 1012.40 1012.16 1011.95 1011.78 1011.64 1011.51 1011.39 1011.26 1011.11 1010.95 1010.76 1010.56 1010.36 1010.17 1010.00 1009.85 1009.74 1009.67 1009.63 1009.63 1009.65 1009.70 1009.75 1009.81
1016.03 1015.95 1015.83 1015.65 1015.45 1015.23 1015.02 1014.83 1014.67 1014.54 1014.42 1014.30 1014.17 1014.02 1013.82 1013.59 1013.33 1013.05 1012.76 1012.49 1012.25 1012.03 1011.85 1011.70 1011.56 1011.42 1011.28 1011.11 1010.92 1010.72 1010.50 1010.27 1010.06 1009.86 1009.69 1009.55 1009.45 1009.38 1009.34 1009.33 1009.33 1009.34 1009.35
1015.97 1015.92 1015.82 1015.68 1015.50 1015.31 1015.13 1014.96 1014.81 1014.68 1014.57 1014.45 1014.31 1014.14 1013.94 1013.70 1013.44 1013.15 1012.87 1012.60 1012.35 1012.13 1011.94 1011.77 1011.61 1011.45 1011.27 1011.08 1010.86 1010.63 1010.39 1010.14 1009.91 1009.69 1009.50 1009.34 1009.22 1009.13 1009.06 1009.01 1008.97 1008.93 1008.89
1015.90 1015.87 1015.80 1015.68 1015.53 1015.37 1015.21 1015.07 1014.93 1014.81 1014.69 1014.57 1014.42 1014.25 1014.04 1013.80 1013.54 1013.26 1012.98 1012.72 1012.48 1012.26 1012.06 1011.87 1011.68 1011.48 1011.27 1011.04 1010.79 1010.52 1010.25 1009.98 1009.73 1009.50 1009.30 1009.13 1008.99 1008.87 1008.77 1008.69 1008.61 1008.52 1008.43
1015.84 1015.82 1015.77 1015.67 1015.55 1015.41 1015.27 1015.14 1015.01 1014.89 1014.76 1014.63 1014.47 1014.29 1014.07 1013.84 1013.58 1013.32 1013.07 1012.82 1012.59 1012.37 1012.16 1011.95 1011.73 1011.50 1011.25 1010.97 1010.68 1010.38 1010.08 1009.79 1009.53 1009.29 1009.08 1008.90 1008.74 1008.60 1008.48 1008.36 1008.23 1008.11 1007.98
1015.79 1015.78 1015.73 1015.65 1015.54 1015.42 1015.29 1015.15 1015.02 1014.88 1014.74 1014.58 1014.41 1014.21 1014.00 1013.77 1013.53 1013.29 1013.06 1012.83 1012.61 1012.40 1012.19 1011.96 1011.71 1011.44 1011.15 1010.83 1010.49 1010.16 1009.83 1009.52 1009.24 1009.00 1008.78 1008.60 1008.43 1008.28 1008.14 1007.99 1007.83 1007.67 1007.51
1015.77 1015.75 1015.70 1015.62 1015.51 1015.39 1015.25 1015.10 1014.94 1014.78 1014.60 1014.41 1014.21 1014.00 1013.77 1013.54 1013.32 1013.10 1012.89 1012.70 1012.50 1012.29 1012.08 1011.83 1011.56 1011.26 1010.92 1010.56 1010.19 1009.82 1009.46 1009.14 1008.85 1008.60 1008.38 1008.20 1008.03 1007.87 1007.71 1007.55 1007.37 1007.19 1007.01
1015.74 1015.72 1015.66 1015.57 1015.45 1015.31 1015.15 1014.97 1014.77 1014.56 1014.34 1014.11 1013.87 1013.63 1013.39 1013.16 1012.95 1012.75 1012.56 1012.38 1012.20 1012.01 1011.79 1011.53 1011.24 1010.90 1010.53 1010.13 1009.73 1009.33 1008.96 1008.62 1008.32 1008.07 1007.86 1007.68 1007.51 1007.35 1007.19 1007.02 1006.84 1006.66 1006.48
1015.69 1015.65 1015.59 1015.48 1015.35 1015.18 1014.99 1014.77 1014.53 1014.26 1013.99 1013.70 1013.42 1013.14 1012.88 1012.64 1012.42 1012.23 1012.06 1011.90 1011.73 1011.55 1011.32 1011.06 1010.75 1010.39 1009.99 1009.57 1009.14 1008.72 1008.33 1007.99 1007.69 1007.43 1007.22 1007.04 1006.88 1006.73 1006.57 1006.41 1006.23 1006.06 1005.89
1015.57 1015.54 1015.46 1015.35 1015.20 1015.01 1014.78 1014.52 1014.22 1013.90 1013.57 1013.23 1012.90 1012.59 1012.30 1012.05 1011.83 1011.64 1011.48 1011.33 1011.17 1010.98 1010.76 1010.49 1010.17 1009.80 1009.38 1008.95 1008.50 1008.07 1007.67 1007.32 1007.01 1006.76 1006.54 1006.36 1006.20 1006.05 1005.89 1005.73 1005.56 1005.39 1005.23
1015.38 1015.35 1015.27 1015.16 1015.00 1014.78 1014.53 1014.23 1013.89 1013.53 1013.15 1012.76 1012.39 1012.05 1011.74 1011.47 1011.24 1011.06 1010.89 1010.75 1010.59 1010.41 1010.19 1009.92 1009.60 1009.22 1008.81 1008.36 1007.92 1007.48 1007.08 1006.71 1006.40 1006.13 1005.90 1005.71 1005.53 1005.36 1005.19 1005.02 1004.85 1004.68 1004.52
1015.11 1015.08 1015.01 1014.90 1014.73 1014.51 1014.24 1013.91 1013.55 1013.15 1012.74 1012.33 1011.94 1011.57 1011.25 1010.97 1010.74 1010.56 1010.40 1010.25 1010.10 1009.93 1009.71 1009.45 1009.14 1008.77 1008.36 1007.93 1007.49 1007.05 1006.65 1006.27 1005.94 1005.65 1005.39 1005.16 1004.95 1004.74 1004.53 1004.33 1004.12 1003.93 1003.76
1014.76 1014.74 1014.69 1014.58 1014.42 1014.19 1013.91 1013.58 1013.21 1012.80 1012.38 1011.97 1011.57 1011.20 1010.88 1010.61 1010.38 1010.20 1010.05 1009.91 1009.77 1009.61 1009.41 1009.16 1008.86 1008.51 1008.13 1007.71 1007.29 1006.87 1006.46 1006.07 1005.72 1005.39 1005.08 1004.79 1004.51 1004.24 1003.97 1003.70 1003.44 1003.20 1002.98
1014.35 1014.35 1014.30 1014.20 1014.04 1013.83 1013.55 1013.22 1012.85 1012.46 1012.06 1011.66 1011.28 1010.94 1010.64 1010.39 1010.18 1010.02 1009.88 1009.75 1009.62 1009.47 1009.29 1009.07 1008.80 1008.48 1008.13 1007.74 1007.34 1006.93 1006.52 1006.13 1005.74 1005.36 1004.99 1004.62 1004.26 1003.89 1003.53 1003.17 1002.83 1002.51 1002.23
1013.91 1013.91 1013.87 1013.77 1013.62 1013.40 1013.14 1012.83 1012.48 1012.12 1011.75 1011.39 1011.06 1010.76 1010.50 1010.29 1010.11 1009.97 1009.86 1009.75 1009.64 1009.51 1009.35 1009.16 1008.92 1008.64 1008.33 1007.98 1007.61 1007.21 1006.81 1006.40 1005.97 1005.54 1005.10 1004.65 1004.18 1003.71 1003.24 1002.78 1002.33 1001.92 1001.54
1013.46 1013.46 1013.40 1013.29 1013.13 1012.92 1012.67 1012.38 1012.07 1011.75 1011.44 1011.14 1010.87 1010.63 1010.43 1010.27 1010.14 1010.04 1009.95 1009.87 1009.78 1009.67 1009.53 1009.36 1009.16 1008.92 1008.64 1008.33 1007.99 1007.62 1007.23 1006.80 1006.35 1005.87 1005.36 1004.82 1004.26 1003.68 1003.10 1002.53 1001.98 1001.46 1001.00
1013.01 1012.98 1012.90 1012.78 1012.61 1012.39 1012.15 1011.89 1011.62 1011.35 1011.10 1010.88 1010.69 1010.53 1010.40 1010.30 1010.22 1010.16 1010.10 1010.04 1009.96 1009.87 1009.75 1009.60 1009.43 1009.22 1008.98 1008.70 1008.39 1008.04 1007.66 1007.23 1006.76 1006.24 1005.68 1005.07 1004.43 1003.77 1003.09 1002.42 1001.78 1001.18 1000.62
1012.55 1012.49 1012.38 1012.23 1012.04 1011.83 1011.60 1011.37 1011.14 1010.94 1010.77 1010.63 1010.52 1010.44 1010.39 1010.36 1010.33 1010.31 1010.28 1010.23 1010.16 1010.07 1009.96 1009.82 1009.65 1009.46 1009.24 1008.99 1008.71 1008.38 1008.01 1007.59 1007.11 1006.57 1005.97 1005.32 1004.63 1003.91 1003.17 1002.44 1001.74 1001.07 1000.45
1012.07 1011.98 1011.84 1011.67 1011.47 1011.26 1011.05 1010.85 1010.69 1010.56 1010.46 1010.41 1010.39 1010.40 1010.42 1010.45 1010.48 1010.48 1010.46 1010.42 1010.35 1010.24 1010.12 1009.97 1009.80 1009.61 1009.40 1009.16 1008.89 1008.58 1008.22 1007.80 1007.32 1006.78 1006.18 1005.51 1004.80 1004.06 1003.30 1002.55 1001.81 1001.12 1000.47
Thickness
5636 5633 5629 5625 5622 5619 5616 5613 5611 5609 5607 5606 5604 5602 5600 5598 5596 5593 5591 5589 5588 5587 5586 5585 5584 5584 5583 5583 5582 5582 5581 5581 5582 5586 5586 5589 5591 5594 5596 5599 5601 5604 5607
5631 5627 5623 5620 5616 5613 5610 5608 5605 5603 5601 5599 5598 5595 5593 5592 5590 5587 5586 5584 5582 5582 5581 5579 5579 5578 5577 5577 5576 5576 5575 5575 5576 5579 5581 5582 5584 5586 5588 5591 5594 5596 5599
5626 5622 5618 5614 5611 5608 5605 5603 5600 5598 5595 5593 5591 5589 5587 5586 5584 5583 5581 5579 5578 5576 5575 5574 5573 5572 5571 5571 5571 5570 5570 5571 5570 5571 5574 5575 5577 5579 5581 5584 5586 5589 5591
5621 5617 5613 5609 5606 5603 5600 5597 5595 5592 5590 5588 5586 5584 5582 5581 5579 5579 5577 5575 5573 5572 5570 5569 5567 5567 5566 5566 5566 5565 5565 5565 5565 5565 5567 5568 5570 5572 5574 5577 5580 5582 5584
5617 5613 5609 5605 5601 5598 5595 5593 5590 5588 5585 5583 5580 5579 5577 5576 5576 5575 5573 5571 5570 5568 5566 5565 5564 5563 5562 5562 5562 5561 5561 5560 5561 5561 5561 5563 5564 5566 5568 5570 5572 5575 5578
5612 5608 5605 5601 5597 5594 5591 5589 5587 5584 5581 5578 5576 5574 5573 5573 5572 5571 5569 5567 5565 5564 5562 5561 5560 5559 5559 5559 5559 5558 5557 5556 5556 5556 5557 5558 5559 5560 5562 5563 5565 5568 5571
5608 5605 5601 5598 5594 5591 5589 5586 5583 5580 5577 5574 5572 5571 5570 5569 5568 5567 5566 5563 5562 5560 5558 5557 5557 5557 5555 5555 5555 5555 5554 5553 5553 5552 5553 5554 5555 5556 5556 5558 5559 5561 5564
5605 5602 5599 5595 5592 5589 5586 5583 5580 5577 5574 5571 5569 5567 5566 5566 5565 5563 5562 5560 5559 5557 5555 5554 5552 5552 5551 5550 5550 5550 5550 5550 5550 5549 5550 5551 5551 5552 5552 5553 5554 5556 5557
5603 5600 5597 5593 5590 5587 5584 5581 5578 5575 5572 5569 5567 5565 5563 5563 5562 5561 5559 5557 5555 5554 5553 5551 5550 5549 5548 5547 5546 5545 5546 5547 5548 5547 5547 5548 5548 5548 5548 5548 5550 5551 5554
5602 5599 5596 5592 5589 5586 5583 5580 5577 5573 5570 5568 5566 5563 5562 5560 5560 5558 5557 5554 5552 5551 5550 5549 5548 5546 5545 5543 5542 5541 5542 5544 5544 5545 5545 5546 5546 5546 5546 5546 5547 5547 5549
5602 5598 5595 5591 5588 5585 5582 5578 5575 5572 5569 5567 5565 5563 5561 5559 5558 5556 5554 5551 5549 5548 5548 5547 5546 5544 5542 5540 5539 5538 5539 5539 5540 5541 5542 5544 5544 5544 5544 5544 5544 5544 5546
5601 5597 5594 5591 5588 5585 5581 5577 5574 5571 5568 5566 5563 5562 5561 5559 5557 5555 5552 5549 5547 5545 5545 5544 5543 5542 5540 5539 5538 5538 5537 5537 5538 5538 5539 5541 5542 5543 5543 5543 5543 5543 5544
5600 5596 5593 5590 5587 5583 5580 5576 5574 5570 5567 5565 5562 5561 5560 5558 5556 5554 5552 5549 5546 5544 5543 5542 5541 5540 5539 5539 5539 5538 5537 5536 5536 5537 5538 5539 5540 5540 5540 5540 5541 5541 5541
5599 5595 5592 5589 5586 5583 5579 5576 5573 5570 5567 5564 5562 5560 5558 5557 5556 5554 5552 5549 5547 5545 5543 5541 5540 5539 5538 5538 5538 5538 5537 5536 5535 5536 5537 5537 5537 5537 5538 5538 5539 5539 5540
5599 5595 5591 5588 5585 5581 5578 5575 5572 5569 5566 5564 5562 5559 5557 5556 5556 5553 5550 5548 5546 5543 5541 5540 5539 5539 5539 5539 5538 5538 5537 5536 5535 5535 5535 5536 5536 5536 5537 5536 5536 5536 5537
5598 5594 5590 5587 5584 5580 5577 5575 5573 5570 5568 5565 5562 5559 5558 5556 5555 5552 5550 5547 5544 5541 5538 5538 5539 5537 5537 5537 5537 5537 5537 5537 5536 5535 5535 5535 5535 5535 5535 5535 5533 5533 5534
5598 5594 5590 5586 5583 5579 5575 5572 5571 5571 5570 5567 5565 5562 5559 5557 5555 5553 5550 5547 5544 5541 5538 5539 5538 5537 5536 5536 5536 5535 5535 5536 5534 5534 5534 5534 5533 5533 5533 5533 5532 5532 5532
5598 5594 5590 5587 5583 5579 5575 5572 5569 5567 5566 5566 5566 5564 5561 5559 5556 5553 5550 5547 5546 5543 5540 5538 5538 5537 5536 5535 5535 5535 5534 5534 5533 5533 5532 5532 5532 5532 5531 5531 5531 5530 5530
5600 5596 5592 5588 5584 5580 5576 5573 5570 5567 5565 5564 5563 5563 5562 5559 5556 5553 5549 5546 5545 5544 5542 5540 5538 5536 5535 5534 5533 5532 5531 5531 5530 5530 5529 5529 5529 5529 5529 5529 5529 5527 5526
5601 5598 5593 5589 5585 5581 5577 5574 5571 5568 5565 5563 5561 5560 5559 5557 5555 5552 5548 5545 5544 5543 5541 5539 5537 5535 5533 5532 5531 5529 5528 5527 5526 5525 5525 5525 5524 5524 5525 5525 5525 5525 5525
5602 5598 5595 5590 5585 5581 5577 5574 5571 5568 5565 5563 5561 5559 5556 5553 5552 5550 5548 5546 5543 5542 5540 5538 5535 5533 5531 5529 5528 5526 5525 5523 5522 5520 5520 5519 5519 5519 5519 5519 5520 5520 5520
5603 5599 5594 5589 5585 5581 5577 5574 5570 5567 5564 5562 5561 5560 5556 5553 5550 5549 5547 5545 5542 5539 5536 5534 5532 5530 5527 5525 5523 5521 5519 5517 5515 5514 5513 5513 5513 5513 5513 5513 5513 5514 5514
5603 5599 5594 5590 5585 5581 5577 5574 5571 5567 5565 5562 5560 5558 5555 5552 5550 5547 5544 5542 5540 5537 5534 5531 5528 5525 5522 5519 5516 5513 5510 5509 5507 5505 5505 5505 5505 5506 5505 5505 5506 5507 5508
5603 5599 5595 5590 5585 5581 5577 5574 5571 5568 5565 5562 5559 5557 5554 5551 5548 5545 5542 5539 5537 5534 5530 5526 5522 5519 5516 5513 5509 5506 5502 5499 5498 5497 5496 5496 5496 5497 5497 5498 5499 5500 5501
5604 5599 5594 5590 5585 5581 5578 5574 5571 5568 5565 5561 5558 5555 5552 5549 5546 5543 5539 5536 5533 5529 5525 5521 5517 5514 5510 5507 5503 5500 5496 5494 5491 5490 5489 5488 5488 5488 5489 5490 5491 5493 5494
5604 5599 5595 5591 5586 5582 5578 5575 5571 5568 5564 5561 5557 5554 5550 5547 5543 5539 5535 5531 5527 5523 5519 5516 5512 5508 5504 5501 5497 5494 5491 5488 5486 5483 5481 5481 5481 5481 5481 5482 5483 5485 5487